Location: Chenango Forks
(42.2242°N, 75.8278°W)
Time: 02:15:43
(UTC-04:00)

Daily predictions for brighter satellites

Satellite Brightness Start Highest point End
(mag) Time Altitude Azimuth Time Altitude Azimuth Time Altitude Azimuth
SL-16 R/B 4.3 02:31:15 27° NNE 02:31:15 27° NNE 02:34:48 10° N
CENTAUR R/B 4.2 02:42:56 27° ENE 02:42:56 27° ENE 02:46:10 10° NE
SL-16 R/B 4.5 02:49:59 18° ENE 02:49:59 18° ENE 02:52:00 10° NE
CZ-2D R/B 3.9 03:09:09 10° NNE 03:11:58 29° NE 03:11:58 29° NE
Cosmos 2360 Rocket 4.5 03:16:06 16° E 03:16:06 16° E 03:19:18 10° ENE
Cosmos 1980 Rocket 3.9 03:19:14 28° NNE 03:19:14 28° NNE 03:21:53 10° NNE
Resurs 1-4 Rocket 3.9 03:14:04 10° NNE 03:16:34 27° NE 03:16:34 27° NE
FALCON 9 R/B 4.2 03:31:24 61° SSW 03:32:35 63° S 04:09:00 10° ESE
Cosmos 2263 Rocket 3.6 03:27:40 10° NNW 03:31:06 32° NNE 03:31:06 32° NNE
Cosmos 2315 Rocket 4.1 04:10:00 68° NNW 04:10:00 68° NNW 04:15:30 10° N
Lacrosse 4 Rocket 3.6 04:09:07 10° N 04:12:35 24° NE 04:16:04 10° ESE
SL-16 R/B 4.0 04:16:19 23° NW 04:16:19 23° NW 04:18:43 10° NNW
DNEPR-1 R/B 4.5 04:14:37 58° N 04:14:37 58° N 04:18:52 10° NNE
Tiangong 2 4.2 04:27:08 14° E 04:27:08 14° E 04:27:40 10° E
SL-08 ROCKET BODY 4.3 04:19:40 10° N 04:25:35 79° E 04:27:25 46° SSE
Cosmos 2322 Rocket 2.6 04:28:06 48° NW 04:28:06 48° NW 04:32:50 10° NNE
ADEOS Rocket 3.3 04:24:51 10° N 04:29:19 45° NW 04:29:19 45° NW
CENTAUR R/B 3.2 04:30:07 39° NW 04:30:35 39° NW 04:37:07 10° NNE
USA 215 3.2 04:24:04 10° SE 04:30:38 82° NE 04:37:13 10° NW
SL-16 R/B 2.6 04:31:51 48° NW 04:31:51 48° NW 04:36:49 10° NNE
COSMOS 2428 4.1 04:32:15 17° SSE 04:35:50 34° ESE 04:40:52 10° NE
Cosmos 2074 Rocket 3.9 04:36:03 10° N 04:42:21 88° W 04:47:30 16° S
Cosmos 2219 Rocket 4.4 04:39:06 10° SSE 04:43:12 21° E 04:47:19 10° NE
ARIANE 5 R/B 4.1 04:41:31 10° N 04:44:11 22° NW 04:44:11 22° NW
ISS -1.2 04:51:36 14° SE 04:51:36 14° SE 04:52:10 10° SE
Cosmos 1844 Rocket 4.0 04:46:01 10° N 04:51:16 40° ENE 04:56:29 10° SE
IRS-1C Rocket 4.4 04:48:25 10° NNE 04:53:39 65° ESE 04:57:00 22° S
CZ-2D R/B 3.6 04:49:55 10° NNW 04:53:18 23° NW 04:53:18 23° NW
Cosmos 1544 Rocket 3.5 04:52:53 10° NNW 04:57:05 67° WNW 04:57:05 67° WNW
Resurs 1-4 Rocket 3.7 04:54:52 10° NNW 04:57:39 19° NW 04:57:39 19° NW
MTI 4.3 04:58:45 60° E 04:58:47 60° ENE 05:02:04 10° N
Cosmos 2360 Rocket 2.1 04:57:54 50° SW 04:59:20 72° WNW 05:05:00 10° NNE
Cosmos 1980 Rocket 4.2 05:01:00 13° NW 05:01:18 13° NW 05:03:53 10° NNW
CZ-4B R/B 2.5 04:58:49 10° NNE 05:02:23 88° NNE 05:02:23 88° NNE
Cosmos 1812 4.0 05:04:57 29° NNW 05:04:57 29° NNW 05:07:13 10° N
Okean O Rocket 1.5 05:04:01 10° N 05:08:28 76° WNW 05:09:49 44° SSW
PAYLOAD B 4.2 05:08:17 10° NNE 05:13:54 83° WNW 05:18:05 19° SSW
Cosmos 2184 Rocket 4.1 05:10:35 10° NNW 05:16:32 50° W 05:22:31 10° SSW
Cosmos 2263 Rocket 4.1 05:11:59 10° NW 05:12:42 13° NW 05:12:42 13° NW
Cosmos 1340 2.7 05:18:04 52° W 05:18:08 52° WNW 05:21:51 10° N
Okean-O 4.1 05:14:14 10° NNE 05:18:22 37° E 05:22:28 10° SSE
Meteor 1-12 Rocket 4.2 05:13:27 10° NNW 05:18:58 56° W 05:24:31 10° S
Cosmos 1777 Rocket 4.3 05:17:08 10° NNW 05:22:07 42° WSW 05:27:02 10° S
DELTA 2 R/B (1) 4.0 05:20:34 30° SW 05:22:57 50° SSE 05:28:19 10° E
ATLAS 5 CENTAUR R/B 3.9 05:17:47 10° NNW 05:23:15 37° NE 05:29:09 10° ESE
Cosmos 2333 Rocket 3.6 05:18:48 10° S 05:23:59 38° ESE 05:29:13 10° NE
Cosmos 1666 3.7 05:21:03 10° N 05:24:49 48° E 05:28:34 10° SSE
ADEOS II 2.0 05:21:33 10° N 05:26:47 67° WNW 05:30:52 17° SSW
Cosmos 1743 2.6 05:23:09 10° N 05:27:02 88° E 05:30:53 10° S
Meteor 1-31 Rocket 3.7 05:24:02 10° NNE 05:27:43 46° E 05:31:23 10° S
Cosmos 1455 Rocket 3.6 05:27:12 10° NNW 05:31:12 35° W 05:32:07 31° WSW
Cosmos 1025 Rocket 4.3 05:27:47 10° SSE 05:31:54 43° E 05:36:04 10° NNE
Lacrosse 5 3.8 05:34:51 13° SSW 05:34:51 13° SSW 05:35:39 10° SSW
MOS 1 Rocket 4.2 05:28:20 10° N 05:32:25 29° WNW 05:33:14 27° W
Cosmos 2322 4.1 05:29:55 27° WSW 05:32:35 46° WNW 05:38:06 10° NNE
EO 1 Del DPAF 3.7 05:34:10 22° SSW 05:36:11 38° W 05:39:49 10° NNW
SAR-Lupe-3 4.5 05:34:00 10° S 05:37:23 55° WSW 05:40:52 10° NNW
Cosmos 962 Rocket 4.5 05:31:13 10° N 05:37:30 86° W 05:43:50 10° S
Meteor 1-13 Rocket 4.1 05:34:39 10° SSW 05:40:10 76° W 05:45:47 10° N
Okean 1 4.4 05:40:05 26° W 05:40:26 26° WNW 05:43:54 10° NNW
USA 116 3.9 05:40:49 10° SSE 05:44:55 84° WSW 05:49:38 10° NNW
Cosmos 1238 Rocket 2.3 05:46:13 26° SW 05:47:32 45° W 05:50:24 10° N
Cosmos 2154 Rocket 4.1 05:44:13 10° NNW 05:50:12 51° W 05:56:09 10° SSW
Cosmos 1975 4.0 05:47:16 10° NW 05:50:23 21° W 05:50:38 21° W
Meteor 2-19 Rocket 4.4 05:45:03 10° N 05:51:11 83° W 05:57:14 10° S
Lacrosse 4 Rocket 2.0 05:47:32 10° NW 05:51:20 34° WSW 05:55:11 10° S
Cosmos 2333 4.2 05:46:11 11° SSW 05:51:35 68° WNW 05:57:17 10° NNE
Cosmos 1844 3.7 05:47:25 10° NNW 05:53:14 87° WSW 05:58:56 10° SSE
Cosmos 2208 Rocket 4.4 05:53:05 12° SW 05:57:53 48° WNW 06:03:10 10° N
Aureole 2 Rocket 3.9 05:55:15 10° S 05:58:46 41° ESE 06:02:02 10° NE
CZ-4B R/B 3.8 05:54:20 10° N 05:59:32 38° WNW 06:04:38 10° SW
Meteor PRIRODA 4.0 05:57:21 10° N 06:00:58 45° WNW 06:04:34 10° SSW
Tiangong 2 1.2 05:59:14 20° W 06:01:07 55° SSW 06:04:12 10° ESE
Iridium 2 3.9 05:57:58 10° N 06:01:48 75° E 06:05:38 10° S
Cosmos 1437 3.7 05:59:19 10° S 06:02:31 52° E 06:05:44 10° NNE
Cosmos 1867 3.9 05:59:43 10° NNW 06:05:12 71° NE 06:10:36 10° SE
SKYMED 2 4.0 06:03:48 10° SSE 06:08:06 67° ENE 06:12:26 10° N
Okean 1-7 Rocket 3.7 06:04:04 10° SSW 06:08:32 58° W 06:12:58 10° N
Cosmos 2181 Rocket 4.1 06:04:42 10° SSW 06:10:48 60° W 06:17:02 10° N
Cosmos 1980 3.9 06:08:24 10° SSW 06:14:01 78° ESE 06:19:42 10° NNE
USA 215 4.1 06:08:34 10° S 06:14:02 28° SW 06:19:33 10° WNW
SL-8 Rocket 3.9 06:08:02 10° N 06:14:15 74° W 06:20:23 10° S
Meteor 1-23 Rocket 4.3 06:12:46 10° SSW 06:18:34 71° WNW 06:24:21 10° N
COSMOS 2428 3.4 06:14:47 10° SW 06:20:00 37° WNW 06:25:16 10° N
ERS-2 3.0 06:16:44 10° N 06:20:03 31° WNW 06:23:20 10° SW
Radarsat Rocket 4.1 06:15:48 10° NNE 06:21:51 80° ESE 06:27:39 10° SSW
Thor Agena Rocket 3.6 06:18:12 10° S 06:23:09 54° WSW 06:28:07 10° NNW
USA 229 DEB 3.7 06:18:14 10° SW 06:25:04 75° NW 06:32:04 10° NNE
USA 229 3.7 06:18:21 10° SW 06:25:10 75° NW 06:32:09 10° NNE
Meteor 2-9 Rocket 4.4 06:21:01 10° NNW 06:26:31 50° W 06:31:49 10° SSW
Cosmos 2219 Rocket 2.4 06:21:15 10° SW 06:26:41 54° WNW 06:32:11 10° NNE
Cosmos 1606 Rocket 3.6 06:23:49 10° NNW 06:28:15 66° W 06:32:41 10° S
Okean 2 3.5 06:24:25 10° SSW 06:28:31 60° W 06:32:40 10° N
Cosmos 864 Rocket 4.5 06:22:24 10° N 06:28:36 82° W 06:34:50 10° S
Cosmos 2150 Rocket 4.0 06:24:47 10° NNW 06:30:01 65° WSW 06:35:19 10° S
GENESIS II 4.4 06:27:44 10° SSW 06:31:48 81° ESE 06:35:54 10° NE
SL-8 R/B 4.1 06:29:16 10° WNW 06:34:02 64° NNE 06:38:45 10° ESE
Cosmos 1844 Rocket 3.4 06:30:13 10° NW 06:34:58 29° WSW 06:39:42 10° SSW
Meteor 1-15 Rocket 4.4 06:30:56 10° NNW 06:36:44 58° W 06:42:32 10° S
Cosmos 2218 Rocket 4.1 06:31:00 10° NNW 06:37:16 59° W 06:43:27 10° S
